LGL141 ELLX-EDDC

Flight info

Callsign LGL141
Flight time 0h 53m
Altitude 33000
Route ASMOX Y891 ROPUV/N0441F270 L607 EMGOD/N0361F130 Z658 ROLIS Z671 TOBAK N858 ERSET T211 ROBEL DCT OSKAN OSKAN4A
Aircraft B738/M-SDE2E3FGHIRWXY/LB1

Departure

Time 2026-05-05 10:10
Airport Luxembourg-Findel International Airport (ELLX)

Arrival

Time 2026-05-05 11:04
Airport Dresden Airport (EDDC)
Time Latitude Longitude Altitude Speed Heading
2026-05-05 09:45 49.63192 6.21479 1236 ft 0 kts 240°
2026-05-05 10:00 49.63192 6.21480 1236 ft 0 kts 240°
2026-05-05 10:00 49.63194 6.21485 1236 ft 2 kts 240°
2026-05-05 10:00 49.63201 6.21505 1236 ft 1 kts 240°
2026-05-05 10:01 49.63206 6.21519 1235 ft 2 kts 221°
2026-05-05 10:01 49.63220 6.21529 1236 ft 2 kts 187°
2026-05-05 10:01 49.63234 6.21527 1236 ft 1 kts 155°
2026-05-05 10:01 49.63237 6.21525 1236 ft 1 kts 149°
2026-05-05 10:02 49.63211 6.21546 1235 ft 5 kts 150°
2026-05-05 10:02 49.63194 6.21561 1233 ft 0 kts 150°
2026-05-05 10:04 49.63192 6.21563 1233 ft 2 kts 150°
2026-05-05 10:04 49.63179 6.21575 1232 ft 2 kts 150°
2026-05-05 10:04 49.63149 6.21601 1230 ft 7 kts 150°
2026-05-05 10:05 49.63103 6.21645 1226 ft 8 kts 135°
2026-05-05 10:05 49.63108 6.21744 1223 ft 11 kts 64°
2026-05-05 10:05 49.63146 6.21867 1220 ft 13 kts 64°
2026-05-05 10:05 49.63187 6.21997 1219 ft 13 kts 64°
2026-05-05 10:06 49.63231 6.22138 1215 ft 16 kts 64°
2026-05-05 10:06 49.63284 6.22310 1209 ft 19 kts 64°
2026-05-05 10:06 49.63347 6.22505 1205 ft 20 kts 61°
2026-05-05 10:06 49.63416 6.22695 1206 ft 19 kts 60°
2026-05-05 10:07 49.63478 6.22862 1209 ft 16 kts 60°
2026-05-05 10:07 49.63530 6.23003 1213 ft 13 kts 60°
2026-05-05 10:07 49.63574 6.23121 1217 ft 12 kts 60°
2026-05-05 10:07 49.63621 6.23249 1217 ft 13 kts 60°
2026-05-05 10:08 49.63660 6.23355 1218 ft 8 kts 63°
2026-05-05 10:08 49.63651 6.23442 1216 ft 9 kts 141°
2026-05-05 10:08 49.63593 6.23494 1215 ft 9 kts 148°
2026-05-05 10:08 49.63532 6.23516 1215 ft 8 kts 203°
2026-05-05 10:09 49.63496 6.23445 1215 ft 8 kts 239°
2026-05-05 10:09 49.63424 6.23252 1215 ft 49 kts 239°
2026-05-05 10:09 49.63137 6.22477 1201 ft 113 kts 240°
2026-05-05 10:09 49.62659 6.21192 1229 ft 159 kts 239°
2026-05-05 10:10 49.62091 6.19679 1651 ft 167 kts 238°
2026-05-05 10:10 49.61526 6.18144 2269 ft 168 kts 239°
2026-05-05 10:10 49.60963 6.16521 2827 ft 180 kts 239°
2026-05-05 10:10 49.60358 6.14796 3410 ft 190 kts 238°
2026-05-05 10:11 49.59710 6.12998 4069 ft 197 kts 238°
2026-05-05 10:11 49.58996 6.11095 4554 ft 215 kts 237°
2026-05-05 10:11 49.58197 6.08994 5001 ft 238 kts 238°
2026-05-05 10:11 49.57361 6.06815 5832 ft 241 kts 237°
2026-05-05 10:12 49.56542 6.04490 6509 ft 254 kts 248°
2026-05-05 10:12 49.56285 6.01744 7089 ft 272 kts 274°
2026-05-05 10:12 49.56801 5.98932 7737 ft 285 kts 295°
2026-05-05 10:12 49.57897 5.96367 8587 ft 288 kts 311°
2026-05-05 10:13 49.59448 5.94402 9316 ft 296 kts 332°
2026-05-05 10:13 49.61422 5.93573 10117 ft 299 kts 360°
2026-05-05 10:13 49.63429 5.94094 10846 ft 304 kts 21°
2026-05-05 10:13 49.65280 5.95819 11278 ft 319 kts 39°
2026-05-05 10:14 49.67059 5.98075 11705 ft 337 kts 41°
2026-05-05 10:14 49.68872 6.00427 12187 ft 353 kts 41°
2026-05-05 10:14 49.70802 6.02908 12651 ft 369 kts 40°
2026-05-05 10:14 49.72827 6.05478 13077 ft 385 kts 40°
2026-05-05 10:15 49.74915 6.08111 13746 ft 393 kts 40°
2026-05-05 10:15 49.76792 6.11157 14504 ft 397 kts 55°
2026-05-05 10:15 49.78250 6.14745 15296 ft 402 kts 62°
2026-05-05 10:15 49.79541 6.18573 16078 ft 406 kts 65°
2026-05-05 10:16 49.80816 6.22532 16876 ft 411 kts 65°
2026-05-05 10:16 49.82100 6.26457 17584 ft 416 kts 64°
2026-05-05 10:16 49.83447 6.30439 18340 ft 421 kts 63°
2026-05-05 10:16 49.84842 6.34455 19059 ft 426 kts 63°
2026-05-05 10:17 49.86266 6.38480 19738 ft 431 kts 62°
2026-05-05 10:17 49.87709 6.42523 20394 ft 437 kts 62°
2026-05-05 10:17 49.89177 6.46629 21105 ft 440 kts 62°
2026-05-05 10:17 49.90682 6.50842 21727 ft 446 kts 62°
2026-05-05 10:18 49.92167 6.55005 22415 ft 449 kts 62°
2026-05-05 10:18 49.93684 6.59262 23013 ft 454 kts 62°
2026-05-05 10:18 49.95215 6.63553 23688 ft 457 kts 62°
2026-05-05 10:18 49.96747 6.67856 24272 ft 462 kts 63°
2026-05-05 10:19 49.98309 6.72250 24841 ft 467 kts 63°
2026-05-05 10:19 49.99865 6.76626 25431 ft 471 kts 63°
2026-05-05 10:19 50.01466 6.81139 25950 ft 476 kts 63°
2026-05-05 10:19 50.03047 6.85604 26544 ft 479 kts 63°
2026-05-05 10:20 50.04666 6.90180 27042 ft 484 kts 63°
2026-05-05 10:20 50.06302 6.94813 27566 ft 488 kts 63°
2026-05-05 10:20 50.07929 6.99426 28111 ft 491 kts 63°
2026-05-05 10:20 50.09560 7.04057 28772 ft 491 kts 64°
2026-05-05 10:21 50.11203 7.08734 29347 ft 493 kts 64°
2026-05-05 10:21 50.12835 7.13386 30011 ft 491 kts 64°
2026-05-05 10:21 50.14465 7.18040 30685 ft 490 kts 64°
2026-05-05 10:21 50.16090 7.22690 31266 ft 489 kts 64°
2026-05-05 10:22 50.17703 7.27304 31884 ft 488 kts 64°
2026-05-05 10:22 50.19364 7.31875 32558 ft 486 kts 61°
2026-05-05 10:22 50.21193 7.36323 32842 ft 491 kts 58°
2026-05-05 10:22 50.23172 7.40676 32859 ft 495 kts 56°
2026-05-05 10:23 50.27309 7.49147 32855 ft 492 kts 53°
2026-05-05 10:23 50.31488 7.57576 32853 ft 491 kts 54°
2026-05-05 10:24 50.35645 7.66104 32851 ft 494 kts 55°
2026-05-05 10:24 50.39758 7.74645 32847 ft 494 kts 55°
2026-05-05 10:25 50.43369 7.83672 32841 ft 488 kts 73°
2026-05-05 10:25 50.44040 7.88783 32860 ft 479 kts 90°
2026-05-05 10:25 50.44091 7.93971 32852 ft 477 kts 96°
2026-05-05 10:26 50.43846 8.04299 32843 ft 477 kts 95°
2026-05-05 10:26 50.44146 8.14745 32846 ft 483 kts 87°
2026-05-05 10:27 50.45348 8.25093 32853 ft 485 kts 79°
2026-05-05 10:27 50.47145 8.35293 32859 ft 488 kts 76°
2026-05-05 10:28 50.49214 8.45405 32856 ft 491 kts 74°
2026-05-05 10:28 50.51381 8.55504 32854 ft 490 kts 73°
2026-05-05 10:29 50.53558 8.65606 32850 ft 491 kts 74°
2026-05-05 10:29 50.55723 8.75733 32850 ft 489 kts 75°
2026-05-05 10:30 50.57868 8.85887 32851 ft 490 kts 74°
2026-05-05 10:30 50.60003 8.96054 32852 ft 491 kts 74°
2026-05-05 10:31 50.62122 9.06202 32852 ft 490 kts 74°
2026-05-05 10:31 50.64236 9.16400 32852 ft 492 kts 74°
2026-05-05 10:32 50.66346 9.26613 32851 ft 491 kts 74°
2026-05-05 10:32 50.68441 9.36805 32851 ft 493 kts 74°
2026-05-05 10:33 50.70535 9.47039 32844 ft 493 kts 74°
2026-05-05 10:33 50.72613 9.57282 32837 ft 493 kts 74°
2026-05-05 10:34 50.74694 9.67560 32836 ft 493 kts 75°
2026-05-05 10:34 50.76764 9.77842 32837 ft 493 kts 75°
2026-05-05 10:35 50.78828 9.88168 32836 ft 492 kts 75°
2026-05-05 10:35 50.80873 9.98427 32836 ft 494 kts 75°
2026-05-05 10:36 50.82906 10.08694 32837 ft 494 kts 75°
2026-05-05 10:36 50.84941 10.19033 32837 ft 494 kts 74°
2026-05-05 10:37 50.86973 10.29391 32833 ft 495 kts 74°
2026-05-05 10:37 50.88996 10.39780 32836 ft 495 kts 74°
2026-05-05 10:38 50.91013 10.50199 32836 ft 495 kts 74°
2026-05-05 10:38 50.93007 10.60569 32836 ft 497 kts 74°
2026-05-05 10:39 50.94997 10.70987 32848 ft 496 kts 75°
2026-05-05 10:39 50.96978 10.81443 32861 ft 496 kts 75°
2026-05-05 10:40 50.98946 10.91932 32866 ft 496 kts 75°
2026-05-05 10:40 51.00891 11.02350 32866 ft 495 kts 75°
2026-05-05 10:41 51.02837 11.12813 32864 ft 496 kts 75°
2026-05-05 10:41 51.04774 11.23300 32859 ft 496 kts 75°
2026-05-05 10:42 51.07663 11.39030 32845 ft 496 kts 75°
2026-05-05 10:43 51.09569 11.49496 32848 ft 496 kts 74°
2026-05-05 10:43 51.11480 11.60046 32851 ft 495 kts 74°
2026-05-05 10:44 51.13370 11.70541 32854 ft 497 kts 75°
2026-05-05 10:44 51.15254 11.81068 32854 ft 496 kts 75°
2026-05-05 10:45 51.17135 11.91633 32852 ft 497 kts 75°
2026-05-05 10:45 51.19006 12.02207 32850 ft 496 kts 75°
2026-05-05 10:46 51.20834 12.12590 32654 ft 485 kts 75°
2026-05-05 10:46 51.21735 12.17725 32075 ft 474 kts 75°
2026-05-05 10:46 51.22606 12.22702 31343 ft 467 kts 75°
2026-05-05 10:46 51.23471 12.27658 30518 ft 466 kts 75°
2026-05-05 10:47 51.24333 12.32615 29621 ft 464 kts 75°
2026-05-05 10:47 51.25193 12.37582 28667 ft 462 kts 76°
2026-05-05 10:47 51.26033 12.42452 27710 ft 462 kts 75°
2026-05-05 10:47 51.26650 12.46033 26964 ft 465 kts 75°
2026-05-05 10:48 51.27515 12.51077 25862 ft 471 kts 75°
2026-05-05 10:48 51.28365 12.56054 24762 ft 476 kts 75°
2026-05-05 10:48 51.29237 12.61161 23993 ft 472 kts 75°
2026-05-05 10:48 51.30090 12.66166 23336 ft 466 kts 76°
2026-05-05 10:49 51.30924 12.71066 22625 ft 462 kts 76°
2026-05-05 10:49 51.31766 12.76036 21865 ft 459 kts 76°
2026-05-05 10:49 51.32590 12.80906 21106 ft 457 kts 76°
2026-05-05 10:49 51.33408 12.85758 20331 ft 455 kts 76°
2026-05-05 10:50 51.34228 12.90634 19539 ft 453 kts 76°
2026-05-05 10:50 51.35029 12.95409 18770 ft 450 kts 76°
2026-05-05 10:50 51.35835 13.00229 17964 ft 448 kts 76°
2026-05-05 10:50 51.36629 13.04989 17183 ft 446 kts 76°
2026-05-05 10:51 51.37424 13.09769 16376 ft 444 kts 76°
2026-05-05 10:51 51.38209 13.14497 15590 ft 441 kts 76°
2026-05-05 10:51 51.38989 13.19216 14818 ft 437 kts 76°
2026-05-05 10:51 51.39754 13.23857 14045 ft 433 kts 76°
2026-05-05 10:52 51.40517 13.28486 13273 ft 429 kts 76°
2026-05-05 10:52 51.41263 13.33027 12519 ft 425 kts 76°
2026-05-05 10:52 51.42005 13.37565 11750 ft 420 kts 76°
2026-05-05 10:52 51.42740 13.42052 11109 ft 410 kts 76°
2026-05-05 10:53 51.43441 13.46332 10778 ft 387 kts 76°
2026-05-05 10:53 51.44097 13.50333 10652 ft 363 kts 76°
2026-05-05 10:53 51.44719 13.54131 10487 ft 341 kts 76°
2026-05-05 10:53 51.45299 13.57692 10345 ft 322 kts 76°
2026-05-05 10:54 51.45808 13.61108 10145 ft 308 kts 81°
2026-05-05 10:54 51.45951 13.64392 9931 ft 295 kts 96°
2026-05-05 10:54 51.45580 13.67599 9556 ft 288 kts 107°
2026-05-05 10:54 51.45038 13.70619 9200 ft 282 kts 109°
2026-05-05 10:55 51.44488 13.73617 8876 ft 278 kts 108°
2026-05-05 10:55 51.43978 13.76591 8517 ft 277 kts 107°
2026-05-05 10:55 51.43500 13.79544 8184 ft 274 kts 106°
2026-05-05 10:55 51.43039 13.82479 7847 ft 272 kts 106°
2026-05-05 10:56 51.42583 13.85417 7527 ft 269 kts 106°
2026-05-05 10:56 51.42135 13.88308 7198 ft 267 kts 105°
2026-05-05 10:56 51.41689 13.91173 6863 ft 266 kts 106°
2026-05-05 10:56 51.41247 13.93991 6552 ft 263 kts 105°
2026-05-05 10:57 51.40797 13.96850 6221 ft 261 kts 105°
2026-05-05 10:57 51.40359 13.99619 5912 ft 259 kts 106°
2026-05-05 10:57 51.39768 14.02334 5582 ft 257 kts 118°
2026-05-05 10:57 51.38631 14.04470 5270 ft 252 kts 148°
2026-05-05 10:58 51.37024 14.05481 4981 ft 248 kts 171°
2026-05-05 10:58 51.35340 14.05632 4688 ft 246 kts 185°
2026-05-05 10:58 51.33733 14.04865 4400 ft 242 kts 212°
2026-05-05 10:58 51.32422 14.03229 4219 ft 238 kts 224°
2026-05-05 10:59 51.31215 14.01387 4029 ft 239 kts 223°
2026-05-05 10:59 51.29978 13.99613 3823 ft 238 kts 221°
2026-05-05 10:59 51.28740 13.97913 3618 ft 233 kts 221°
2026-05-05 10:59 51.27526 13.96249 3419 ft 229 kts 221°
2026-05-05 11:00 51.26337 13.94601 3243 ft 222 kts 221°
2026-05-05 11:00 51.25204 13.93030 3072 ft 215 kts 221°
2026-05-05 11:00 51.24105 13.91510 2993 ft 201 kts 222°
2026-05-05 11:00 51.23066 13.90077 2950 ft 195 kts 221°
2026-05-05 11:01 51.22033 13.88648 2750 ft 201 kts 222°
2026-05-05 11:01 51.20998 13.87217 2450 ft 190 kts 222°
2026-05-05 11:01 51.20032 13.85880 2214 ft 177 kts 222°
2026-05-05 11:01 51.19145 13.84654 2025 ft 160 kts 222°
2026-05-05 11:02 51.18338 13.83566 1837 ft 151 kts 223°
2026-05-05 11:02 51.17540 13.82449 1595 ft 152 kts 222°
2026-05-05 11:02 51.16745 13.81342 1407 ft 151 kts 222°
2026-05-05 11:02 51.15940 13.80243 1207 ft 153 kts 221°
2026-05-05 11:03 51.15143 13.79151 1001 ft 152 kts 220°
2026-05-05 11:03 51.14335 13.78038 770 ft 152 kts 220°
2026-05-05 11:03 51.13598 13.77024 721 ft 116 kts 220°
2026-05-05 11:03 51.13161 13.76424 733 ft 51 kts 221°
2026-05-05 11:04 51.12925 13.76099 742 ft 39 kts 220°
2026-05-05 11:04 51.12776 13.75893 746 ft 17 kts 221°
2026-05-05 11:04 51.12717 13.75835 748 ft 6 kts 184°
2026-05-05 11:04 51.12683 13.75863 748 ft 4 kts 136°
2026-05-05 11:05 51.12663 13.75899 749 ft 4 kts 131°
2026-05-05 11:05 51.12640 13.75941 749 ft 5 kts 131°
2026-05-05 11:05 51.12612 13.75991 750 ft 6 kts 132°
2026-05-05 11:05 51.12584 13.76043 751 ft 5 kts 130°
2026-05-05 11:06 51.12560 13.76087 752 ft 4 kts 131°
2026-05-05 11:06 51.12540 13.76126 753 ft 4 kts 120°
2026-05-05 11:06 51.12543 13.76176 753 ft 6 kts 56°
2026-05-05 11:06 51.12589 13.76239 752 ft 9 kts 40°
2026-05-05 11:07 51.12622 13.76283 752 ft 3 kts 41°
2026-05-05 11:07 51.12642 13.76310 752 ft 3 kts 41°
2026-05-05 11:07 51.12653 13.76338 752 ft 2 kts 85°
2026-05-05 11:07 51.12645 13.76367 752 ft 2 kts 124°
2026-05-05 11:08 51.12632 13.76393 752 ft 2 kts 130°
2026-05-05 11:08 51.12627 13.76402 753 ft 0 kts 130°